User: anonymous   Login
Location: Fort Worth, Tx
(32.7431°N, 97.3695°W)
Time: 00:42:19
(UTC-04:00)
Language:

ISS - Orbit

View from above orbital plane
View from above orbital plane
View from above satellite
View from above satellite

Ground track
Ground track

The orbit data is extracted from the following two-line orbital elements,

1 25544U 98067A   24174.83521159  .00018321  00000-0  33171-3 0  9995
2 25544  51.6416 287.3111 0010908 356.5490 146.7384 15.49648437459426
Epoch (UTC): 22 June 2024 20:02:42
Eccentricity: 0.0010908
inclination: 51.6416°
perigee height: 410 km
apogee height: 425 km
right ascension of ascending node: 287.3111°
argument of perigee: 356.5490°
revolutions per day: 15.49648437
mean anomaly at epoch: 146.7384°
orbit number at epoch: 45942

The dashed part of the orbit path shows where the satellite is in the earth's shadow,  

DLR